Time,TemperatureF,DewpointF,PressureIn,WindDirection,WindDirectionDegrees,WindSpeedMPH,WindSpeedGustMPH,Humidity,HourlyPrecipIn,Conditions,Clouds,dailyrainin,SoftwareType,DateUTC
2013-05-03 00:01:00,29.1,15.0,30.65,SW,236,4.0,16.0,57,0.00,,,0.00,weatherlink.com 1.10,2013-05-03 06:01:00,
2013-05-03 00:16:00,29.2,15.0,30.65,West,276,6.0,15.0,56,0.00,,,0.00,weatherlink.com 1.10,2013-05-03 06:16:00,
2013-05-03 00:31:00,29.1,15.0,30.64,SSW,198,2.0,12.0,56,0.00,,,0.00,weatherlink.com 1.10,2013-05-03 06:31:00,
2013-05-03 00:46:00,29.2,14.0,30.64,WNW,285,5.0,13.0,54,0.00,,,0.00,weatherlink.com 1.10,2013-05-03 06:46:00,
2013-05-03 01:01:00,29.1,14.0,30.63,WNW,294,10.0,14.0,54,0.00,,,0.00,weatherlink.com 1.10,2013-05-03 07:01:00,
2013-05-03 01:16:00,28.9,14.0,30.62,WSW,255,10.0,13.0,54,0.00,,,0.00,weatherlink.com 1.10,2013-05-03 07:16:00,
2013-05-03 01:31:00,28.8,14.0,30.61,WNW,288,5.0,12.0,54,0.00,,,0.00,weatherlink.com 1.10,2013-05-03 07:31:00,
2013-05-03 01:46:00,28.6,14.0,30.60,West,262,2.0,16.0,54,0.00,,,0.00,weatherlink.com 1.10,2013-05-03 07:46:00,
2013-05-03 02:02:00,28.4,14.0,30.60,WSW,250,5.0,13.0,54,0.00,,,0.00,weatherlink.com 1.10,2013-05-03 08:02:00,
2013-05-03 02:17:00,28.4,13.0,30.58,South,180,1.0,13.0,52,0.00,,,0.00,weatherlink.com 1.10,2013-05-03 08:17:00,
2013-05-03 02:32:00,28.6,13.0,30.57,ESE,110,3.0,14.0,52,0.00,,,0.00,weatherlink.com 1.10,2013-05-03 08:32:00,
2013-05-03 02:47:00,28.8,13.0,30.57,WNW,301,12.0,17.0,51,0.00,,,0.00,weatherlink.com 1.10,2013-05-03 08:47:00,
2013-05-03 03:02:00,29.1,12.0,30.56,WSW,255,6.0,18.0,50,0.00,,,0.00,weatherlink.com 1.10,2013-05-03 09:02:00,
2013-05-03 03:17:00,29.2,12.0,30.56,WSW,240,8.0,18.0,48,0.00,,,0.00,weatherlink.com 1.10,2013-05-03 09:17:00,
2013-05-03 03:32:00,29.3,12.0,30.55,West,264,4.0,14.0,48,0.00,,,0.00,weatherlink.com 1.10,2013-05-03 09:32:00,
2013-05-03 03:47:00,29.0,12.0,30.54,West,266,11.0,13.0,49,0.00,,,0.00,weatherlink.com 1.10,2013-05-03 09:47:00,
2013-05-03 04:02:00,28.9,12.0,30.54,WSW,255,7.0,15.0,49,0.00,,,0.00,weatherlink.com 1.10,2013-05-03 10:02:00,
2013-05-03 04:17:00,29.1,12.0,30.53,West,267,6.0,18.0,49,0.00,,,0.00,weatherlink.com 1.10,2013-05-03 10:17:00,
2013-05-03 04:32:00,29.2,12.0,30.53,West,261,13.0,15.0,48,0.00,,,0.00,weatherlink.com 1.10,2013-05-03 10:32:00,
2013-05-03 04:47:00,28.8,12.0,30.52,WNW,285,10.0,16.0,49,0.00,,,0.00,weatherlink.com 1.10,2013-05-03 10:47:00,
2013-05-03 05:02:00,28.7,12.0,30.51,WNW,283,8.0,16.0,49,0.00,,,0.00,weatherlink.com 1.10,2013-05-03 11:02:00,
2013-05-03 05:17:00,28.7,12.0,30.50,NW,305,3.0,15.0,49,0.00,,,0.00,weatherlink.com 1.10,2013-05-03 11:17:00,
2013-05-03 05:32:00,28.8,11.0,30.49,WSW,253,10.0,17.0,48,0.00,,,0.00,weatherlink.com 1.10,2013-05-03 11:32:00,
2013-05-03 05:47:00,28.8,11.0,30.49,WNW,290,7.0,17.0,47,0.00,,,0.00,weatherlink.com 1.10,2013-05-03 11:47:00,
2013-05-03 06:02:00,28.7,11.0,30.49,WNW,302,3.0,17.0,48,0.00,,,0.00,weatherlink.com 1.10,2013-05-03 12:02:00,
2013-05-03 06:17:00,28.8,11.0,30.48,West,259,5.0,15.0,47,0.00,,,0.00,weatherlink.com 1.10,2013-05-03 12:17:00,
2013-05-03 06:32:00,28.9,11.0,30.48,South,172,4.0,12.0,48,0.00,,,0.00,weatherlink.com 1.10,2013-05-03 12:32:00,
2013-05-03 06:47:00,29.7,12.0,30.47,SW,227,8.0,10.0,47,0.00,,,0.00,weatherlink.com 1.10,2013-05-03 12:47:00,
2013-05-03 07:02:00,30.5,12.0,30.46,SW,233,8.0,13.0,46,0.00,,,0.00,weatherlink.com 1.10,2013-05-03 13:02:00,
2013-05-03 07:17:00,31.2,12.0,30.45,SSW,193,5.0,10.0,46,0.00,,,0.00,weatherlink.com 1.10,2013-05-03 13:17:00,
2013-05-03 07:32:00,32.4,13.0,30.44,SW,220,6.0,13.0,44,0.00,,,0.00,weatherlink.com 1.10,2013-05-03 13:32:00,
2013-05-03 07:48:00,33.6,13.0,30.42,SSW,207,2.0,14.0,42,0.00,,,0.00,weatherlink.com 1.10,2013-05-03 13:48:00,
2013-05-03 08:03:00,35.0,13.0,30.42,West,274,5.0,12.0,41,0.00,,,0.00,weatherlink.com 1.10,2013-05-03 14:03:00,
2013-05-03 08:18:00,36.1,13.0,30.41,WSW,249,8.0,12.0,39,0.00,,,0.00,weatherlink.com 1.10,2013-05-03 14:18:00,
2013-05-03 08:33:00,37.5,13.0,30.39,NW,308,3.0,10.0,37,0.00,,,0.00,weatherlink.com 1.10,2013-05-03 14:33:00,
2013-05-03 08:48:00,38.6,13.0,30.38,WSW,256,3.0,12.0,35,0.00,,,0.00,weatherlink.com 1.10,2013-05-03 14:48:00,
2013-05-03 09:03:00,39.7,13.0,30.38,WNW,298,2.0,10.0,34,0.00,,,0.00,weatherlink.com 1.10,2013-05-03 15:03:00,
2013-05-03 09:18:00,40.5,13.0,30.37,WSW,242,8.0,12.0,32,0.00,,,0.00,weatherlink.com 1.10,2013-05-03 15:18:00,
2013-05-03 09:33:00,41.1,13.0,30.35,West,274,7.0,10.0,32,0.00,,,0.00,weatherlink.com 1.10,2013-05-03 15:33:00,
2013-05-03 09:48:00,42.3,13.0,30.35,SW,224,8.0,11.0,31,0.00,,,0.00,weatherlink.com 1.10,2013-05-03 15:48:00,
2013-05-03 10:03:00,42.9,13.0,30.34,WSW,240,5.0,9.0,30,0.01,,,0.01,weatherlink.com 1.10,2013-05-03 16:03:00,
2013-05-03 10:18:00,43.1,14.0,30.33,West,279,3.0,11.0,31,0.01,,,0.01,weatherlink.com 1.10,2013-05-03 16:18:00,
2013-05-03 10:33:00,42.9,13.0,30.32,SSW,203,3.0,11.0,29,0.02,,,0.02,weatherlink.com 1.10,2013-05-03 16:33:00,
2013-05-03 10:48:00,42.8,12.0,30.32,SW,235,8.0,14.0,29,0.04,,,0.04,weatherlink.com 1.10,2013-05-03 16:48:00,
2013-05-03 11:03:00,43.9,16.0,30.31,West,262,7.0,11.0,32,0.04,,,0.05,weatherlink.com 1.10,2013-05-03 17:03:00,
2013-05-03 11:18:00,43.6,15.0,30.31,SW,232,3.0,12.0,31,0.05,,,0.06,weatherlink.com 1.10,2013-05-03 17:18:00,
2013-05-03 11:33:00,44.3,18.0,30.30,WNW,297,3.0,13.0,35,0.06,,,0.08,weatherlink.com 1.10,2013-05-03 17:33:00,
2013-05-03 11:49:00,43.9,16.0,30.30,WSW,242,6.0,18.0,33,0.06,,,0.10,weatherlink.com 1.10,2013-05-03 17:49:00,
2013-05-03 12:03:00,43.7,16.0,30.29,West,270,3.0,17.0,33,0.06,,,0.11,weatherlink.com 1.10,2013-05-03 18:03:00,
2013-05-03 12:18:00,44.3,16.0,30.29,WNW,289,9.0,15.0,32,0.06,,,0.12,weatherlink.com 1.10,2013-05-03 18:18:00,
2013-05-03 12:33:00,44.5,17.0,30.27,West,276,9.0,13.0,33,0.05,,,0.13,weatherlink.com 1.10,2013-05-03 18:33:00,
2013-05-03 12:48:00,44.7,16.0,30.27,WNW,293,6.0,14.0,31,0.03,,,0.13,weatherlink.com 1.10,2013-05-03 18:48:00,
2013-05-03 13:04:00,45.2,15.0,30.26,WNW,297,7.0,13.0,30,0.02,,,0.13,weatherlink.com 1.10,2013-05-03 19:04:00,
2013-05-03 13:19:00,45.9,15.0,30.25,West,270,6.0,13.0,29,0.01,,,0.13,weatherlink.com 1.10,2013-05-03 19:19:00,
2013-05-03 13:34:00,46.7,17.0,30.24,NW,304,9.0,11.0,30,0.00,,,0.13,weatherlink.com 1.10,2013-05-03 19:34:00,
2013-05-03 13:49:00,46.9,15.0,30.23,WNW,284,9.0,13.0,28,0.00,,,0.13,weatherlink.com 1.10,2013-05-03 19:49:00,
2013-05-03 14:04:00,47.2,15.0,30.23,WSW,255,1.0,12.0,27,0.00,,,0.13,weatherlink.com 1.10,2013-05-03 20:04:00,
2013-05-03 14:19:00,47.5,14.0,30.22,SE,130,5.0,12.0,26,0.00,,,0.13,weatherlink.com 1.10,2013-05-03 20:19:00,
2013-05-03 14:34:00,47.9,15.0,30.21,SE,127,5.0,7.0,27,0.00,,,0.13,weatherlink.com 1.10,2013-05-03 20:34:00,
2013-05-03 14:49:00,45.2,19.0,30.20,ENE,70,4.0,9.0,35,0.00,,,0.13,weatherlink.com 1.10,2013-05-03 20:49:00,
2013-05-03 15:04:00,45.5,22.0,30.18,ENE,65,4.0,9.0,39,0.00,,,0.13,weatherlink.com 1.10,2013-05-03 21:04:00,
2013-05-03 15:19:00,44.1,22.0,30.17,NE,39,4.0,11.0,42,0.00,,,0.13,weatherlink.com 1.10,2013-05-03 21:19:00,
2013-05-03 15:34:00,43.5,23.0,30.16,ENE,74,6.0,14.0,44,0.00,,,0.13,weatherlink.com 1.10,2013-05-03 21:34:00,
2013-05-03 15:49:00,43.3,23.0,30.16,ESE,103,3.0,7.0,44,0.00,,,0.13,weatherlink.com 1.10,2013-05-03 21:49:00,
2013-05-03 16:04:00,44.1,23.0,30.16,East,91,5.0,8.0,44,0.00,,,0.13,weatherlink.com 1.10,2013-05-03 22:04:00,
2013-05-03 16:19:00,43.2,23.0,30.15,NNE,25,5.0,9.0,45,0.00,,,0.13,weatherlink.com 1.10,2013-05-03 22:19:00,
2013-05-03 16:34:00,43.5,23.0,30.14,ESE,105,5.0,9.0,45,0.00,,,0.13,weatherlink.com 1.10,2013-05-03 22:34:00,
2013-05-03 16:49:00,43.3,24.0,30.14,East,82,7.0,10.0,47,0.00,,,0.13,weatherlink.com 1.10,2013-05-03 22:49:00,
2013-05-03 17:05:00,43.6,24.0,30.14,East,95,6.0,10.0,47,0.00,,,0.13,weatherlink.com 1.10,2013-05-03 23:05:00,
2013-05-03 17:19:00,43.5,24.0,30.13,ENE,69,8.0,10.0,46,0.00,,,0.13,weatherlink.com 1.10,2013-05-03 23:19:00,
2013-05-03 17:34:00,43.2,24.0,30.13,East,100,7.0,10.0,46,0.00,,,0.13,weatherlink.com 1.10,2013-05-03 23:34:00,
2013-05-03 17:49:00,43.2,24.0,30.13,ENE,73,3.0,9.0,47,0.00,,,0.13,weatherlink.com 1.10,2013-05-03 23:49:00,
2013-05-03 18:04:00,42.9,24.0,30.13,ENE,70,3.0,8.0,48,0.00,,,0.13,weatherlink.com 1.10,2013-05-04 00:04:00,
2013-05-03 18:19:00,42.2,24.0,30.12,East,95,4.0,5.0,49,0.00,,,0.13,weatherlink.com 1.10,2013-05-04 00:19:00,
2013-05-03 18:34:00,42.3,25.0,30.12,East,88,4.0,5.0,50,0.00,,,0.13,weatherlink.com 1.10,2013-05-04 00:34:00,
2013-05-03 18:49:00,42.1,25.0,30.12,East,96,7.0,7.0,50,0.00,,,0.13,weatherlink.com 1.10,2013-05-04 00:49:00,
2013-05-03 19:04:00,41.3,24.0,30.12,East,84,6.0,6.0,50,0.00,,,0.13,weatherlink.com 1.10,2013-05-04 01:04:00,
2013-05-03 19:19:00,40.5,24.0,30.12,East,81,1.0,5.0,53,0.00,,,0.13,weatherlink.com 1.10,2013-05-04 01:19:00,
2013-05-03 19:34:00,39.8,25.0,30.12,ENE,72,0.0,4.0,55,0.00,,,0.13,weatherlink.com 1.10,2013-05-04 01:34:00,
2013-05-03 19:49:00,38.1,24.0,30.12,ENE,77,0.0,1.0,57,0.00,,,0.13,weatherlink.com 1.10,2013-05-04 01:49:00,
2013-05-03 20:04:00,36.4,24.0,30.12,North,360,0.0,1.0,61,0.00,,,0.13,weatherlink.com 1.10,2013-05-04 02:04:00,
2013-05-03 20:19:00,35.3,25.0,30.13,North,360,0.0,1.0,65,0.00,,,0.13,weatherlink.com 1.10,2013-05-04 02:19:00,
2013-05-03 20:34:00,33.9,25.0,30.13,North,359,0.0,0.0,69,0.00,,,0.13,weatherlink.com 1.10,2013-05-04 02:34:00,
2013-05-03 20:49:00,33.2,25.0,30.14,West,273,0.0,0.0,73,0.00,,,0.13,weatherlink.com 1.10,2013-05-04 02:49:00,
2013-05-03 21:04:00,32.4,25.0,30.14,SE,141,0.0,0.0,75,0.00,,,0.13,weatherlink.com 1.10,2013-05-04 03:04:00,
2013-05-03 21:19:00,32.4,25.0,30.15,SE,141,0.0,0.0,75,0.00,,,0.13,weatherlink.com 1.10,2013-05-04 03:19:00,
2013-05-03 21:34:00,32.1,26.0,30.15,SE,141,0.0,0.0,77,0.00,,,0.13,weatherlink.com 1.10,2013-05-04 03:34:00,
2013-05-03 21:49:00,31.6,25.0,30.16,SE,141,0.0,0.0,78,0.00,,,0.13,weatherlink.com 1.10,2013-05-04 03:49:00,
2013-05-03 22:04:00,31.2,26.0,30.15,WSW,246,0.0,0.0,80,0.00,,,0.13,weatherlink.com 1.10,2013-05-04 04:04:00,
2013-05-03 22:19:00,31.1,26.0,30.15,SSW,207,0.0,1.0,80,0.00,,,0.13,weatherlink.com 1.10,2013-05-04 04:19:00,
2013-05-03 22:34:00,30.4,25.0,30.14,SSW,207,0.0,1.0,81,0.00,,,0.13,weatherlink.com 1.10,2013-05-04 04:34:00,
2013-05-03 22:49:00,30.5,25.0,30.14,SE,132,0.0,1.0,81,0.00,,,0.13,weatherlink.com 1.10,2013-05-04 04:49:00,
2013-05-03 23:04:00,29.8,25.0,30.13,West,266,0.0,0.0,83,0.00,,,0.13,weatherlink.com 1.10,2013-05-04 05:04:00,
2013-05-03 23:19:00,29.1,25.0,30.13,West,265,0.0,0.0,83,0.00,,,0.13,weatherlink.com 1.10,2013-05-04 05:19:00,
2013-05-03 23:34:00,27.9,24.0,30.13,West,265,0.0,0.0,85,0.00,,,0.13,weatherlink.com 1.10,2013-05-04 05:34:00,
2013-05-03 23:50:00,27.7,24.0,30.13,West,269,0.0,0.0,87,0.00,,,0.13,weatherlink.com 1.10,2013-05-04 05:50:00,